844  
ASPQ40 PGUM 231310  
RWRPQ  
WEATHER ROUNDUP FOR THE MARIANAS AND MICRONESIA  
NATIONAL WEATHER SERVICE TIYAN GU  
1100 PM CHST SAT OCT 23 2021  
 
GUZ001>004-231400-  
MARIANA ISLANDS-  
 
CITY SKY/WX TMP DP RH WIND PRES REMARKS
 
GUAM AIRPORT LGT RAIN 77 75 94 S8 29.88S  
ANDERSEN AFB NOT AVBL  
ROTA AIRPORT NOT AVBL  
TINIAN AP NOT AVBL  
SAIPAN AP MOCLDY 81 77 89 S9 29.85F  
 

 
 
PMZ161-231400-  
REPUBLIC OF PALAU-  
 
CITY SKY/WX TMP DP RH WIND PRES REMARKS
 
KOROR AP MOCLDY 77 77 100 N3 29.89S  
KOROR WSO NOT AVBL  
 

 
 
PMZ171>174-231400-  
FEDERATED STATES OF MICRONESIA-  
 
CITY SKY/WX TMP DP RH WIND PRES REMARKS
 
YAP AIRPORT LGT RAIN 77 77 100 NW8 29.89S  
CHUUK AP MOCLDY 82 75 78 VRB3 29.87F  
POHNPEI AP PTCLDY 79 75 89 SE3 29.86F  
POHNPEI WSO PTCLDY 75 75 100 SE5 29.91F  
KOSRAE AP NOT AVBL  
 

 
 
PMZ181-231400-  
REPUBLIC OF THE MARSHALL ISLANDS-  
 
CITY SKY/WX TMP DP RH WIND PRES REMARKS
 
KWAJALEIN AP CLEAR 79 75 89 NE9 29.85F  
MAJURO AP NOT AVBL  
MAJURO WSO LGT RAIN 79 75 89 S3 29.82F  
 

 
 
 
 
CLICK HERE TO GO TO PREVIOUS BULLETINS.

The Nexlab GU Page Main Text Page